Weather in Vashindaroy

Russia / Chechen Republic     42°51′39″N   45°40′10″E
temp.,
°C
wind,
m/s
gust,
m/s
humid.,
%
clouds,
%
prec.,
mm/h
press.,
hPa
HPBL,
m
18 april, sun
sun1800:00+5sse1192100 0.0 102078
03:00+5e1193100 0.0 101955
06:00+6n0188100 0.0 101943
09:00+13ssw1358100 0.1 10151017
12:00+16nw144970 0.0 10141596
15:00+15n125634 0.1 10131122
18:00+9n119163 0.9 1017190
21:00+9sse1395100 3.5 1019203
19 april, mon
mon1900:00+8sse3482100 0.1 101776
03:00+8s3376100 0.1 101744
06:00+8sse227370 0.0 101738
09:00+14n1251100 0.0 10151133
12:00+15nnw225687 0.2 10151286
15:00+16n2352100 0.3 10131331
18:00+13nnw226935 0.1 1014208
21:00+10s3474100 0.1 101577
20 april, tue
tue2000:00+10s346899 0.0 101479
03:00+9s4574100 0.0 101492
06:00+10sse466971 0.0 1013104
09:00+19sse3438100 0.0 1009711
12:00+23ssw3525100 0.0 10072229
15:00+21ssw3633100 0.0 10071704
18:00+16s3453100 0.0 100884
21:00+13s3570100 0.2 1010122
21 april, wed
wed2100:00+11s3481100 2.9 1011104
03:00+9ene028779 3.4 101247
06:00+9n229381 0.2 1014362
09:00+7n3398100 0.5 1017359
12:00+5n3398100 0.4 1019389
15:00+4n3398100 0.9 1021395
18:00+4n2298100 1.1 1022353
21:00+4nnw1198100 2.5 1022205
22 april, thu
thu2200:00+4n1198100 0.5 1022160
03:00+4nne119991 0.6 1021116
06:00+3n1199100 0.0 1021152
09:00+5nne219598 0.1 1020214
12:00+5n3397100 0.4 1021316
15:00+3n2398100 0.6 1023300
18:00+3nnw1298100 0.1 1023228
21:00+3nne019798 1.8 1024152